Погода в Никольском

Россия / Вологодская область     59°21′13″N   37°10′37″E
темп.,
°C
ветер,
м/с
пор.,
м/с
влажн.,
%
обл.,
%
осадки,
мм/ч
давл.,
гПа
погр.,
м
17 апреля, сб
сб1700:00+5всв412755 0.0 1030367
03:00+3всв4118238 0.0 1030277
06:00+2всв311858 0.0 1030280
09:00+7всв49615 0.0 1031567
12:00+11всв56455 0.0 10301085
15:00+13всв46405 0.0 10291326
18:00+11всв46480 0.0 1028992
21:00+6св310700 0.0 1029236
18 апреля, вс
вс1800:00+4св39800 0.0 1029192
03:00+3св39840 0.0 1030209
06:00+2св310830 0.0 1030239
09:00+8всв476086 0.0 1030543
12:00+10всв5753100 0.0 10291161
15:00+11всв4749100 0.0 10291299
18:00+10всв485799 0.0 10291213
21:00+7всв41072100 0.0 1030570
19 апреля, пн
пн1900:00+4всв4107758 0.0 1031547
03:00+2всв310855 0.0 1031330
06:00+1всв39791 0.0 1032286
09:00+5в48530 0.0 1032689
12:00+8в57392 0.0 10311468
15:00+10в56355 0.0 10301812
18:00+9в464121 0.0 10301639
21:00+4всв39625 0.0 1030207
20 апреля, вт
вт2000:00+3в3106762 0.0 1030295
03:00+1в39741 0.0 1030228
06:000в3117196 0.0 1029341
09:00+5вюв51048100 0.0 1028840
12:00+8вюв5843100 0.0 10261377
15:00+10вюв584671 0.0 10241587
18:00+10в51051100 0.0 10201477
21:00+7в51258100 0.0 1019806
21 апреля, ср
ср2100:00+6в61359100 0.0 1015920
03:00+4в71567100 0.3 1012936
06:00+3в61690100 2.1 10081065
09:00+3вюв61596100 5.6 1006860
12:00+4вюв61492100 0.3 1004936
15:00+6вюв71690100 1.9 10021268
18:00+6ююв6138597 0.3 10021218
21:00+5юв71686100 0.4 10021372